| time (UTC) | temp F | wind direction | speed MPH | gust MPH | rain 1hr in | rain 24hr in | rain mn in | humidity % | barometer mb |
| 20260510033325 | 75 | 229 | 0.0 | 0.0 | 0.00 | 0.00 | 0.00 | 74 | 1003.9 |
| 20260510032821 | 75 | 229 | 0.0 | 0.0 | 0.00 | 0.00 | 0.00 | 74 | 1003.9 |
| 20260510032318 | 75 | 226 | 0.0 | 0.0 | 0.00 | 0.00 | 0.00 | 73 | 1003.9 |
| 20260510031813 | 75 | 234 | 0.0 | 0.0 | 0.00 | 0.00 | 0.00 | 73 | 1003.9 |
| 20260510031309 | 76 | 226 | 0.0 | 0.0 | 0.00 | 0.00 | 0.00 | 73 | 1003.5 |
| 20260510030803 | 76 | 226 | 0.0 | 0.0 | 0.00 | 0.00 | 0.00 | 73 | 1003.9 |
| 20260510030300 | 76 | 223 | 0.0 | 0.0 | 0.00 | 0.00 | 0.00 | 73 | 1003.9 |
| 20260510025757 | 76 | 215 | 0.0 | 0.0 | 0.00 | 0.00 | 0.00 | 72 | 1003.5 |
| 20260510025255 | 76 | 233 | 0.0 | 0.0 | 0.00 | 0.00 | 0.00 | 71 | 1003.5 |
| 20260510024751 | 76 | 233 | 0.0 | 0.0 | 0.00 | 0.00 | 0.00 | 70 | 1003.5 |
| 20260510024248 | 76 | 235 | 0.0 | 0.0 | 0.00 | 0.00 | 0.00 | 70 | 1003.5 |
| 20260510023744 | 77 | 235 | 0.0 | 0.0 | 0.00 | 0.00 | 0.00 | 69 | 1003.2 |
| 20260510023241 | 77 | 241 | 0.0 | 0.0 | 0.00 | 0.00 | 0.00 | 68 | 1003.5 |
| 20260510022737 | 77 | 226 | 0.0 | 0.0 | 0.00 | 0.00 | 0.00 | 67 | 1003.2 |
| 20260510022238 | 77 | 232 | 0.0 | 0.0 | 0.00 | 0.00 | 0.00 | 66 | 1003.2 |
| 20260510021732 | 78 | 232 | 0.0 | 0.0 | 0.00 | 0.00 | 0.00 | 65 | 1003.2 |
| 20260510021231 | 78 | 232 | 0.0 | 0.0 | 0.00 | 0.00 | 0.00 | 65 | 1002.9 |
| 20260510020730 | 79 | 232 | 0.0 | 0.0 | 0.00 | 0.00 | 0.00 | 64 | 1003.2 |
| 20260510020225 | 79 | 232 | 0.0 | 0.0 | 0.00 | 0.00 | 0.00 | 64 | 1003.2 |
| 20260510015721 | 80 | 231 | 0.0 | 0.0 | 0.00 | 0.00 | 0.00 | 63 | 1002.9 |
| 20260510015218 | 80 | 231 | 0.0 | 0.0 | 0.00 | 0.00 | 0.00 | 62 | 1002.9 |
| 20260510014713 | 80 | 232 | 0.0 | 0.0 | 0.00 | 0.00 | 0.00 | 62 | 1002.9 |
| 20260510014212 | 80 | 232 | 0.0 | 0.0 | 0.00 | 0.00 | 0.00 | 61 | 1002.9 |
| 20260510013711 | 81 | 232 | 0.0 | 0.0 | 0.00 | 0.00 | 0.00 | 61 | 1002.9 |
| 20260510013208 | 81 | 228 | 0.0 | 0.0 | 0.00 | 0.00 | 0.00 | 60 | 1002.5 |
| 20260510012702 | 81 | 228 | 0.0 | 0.0 | 0.00 | 0.00 | 0.00 | 59 | 1002.9 |
| 20260510012157 | 82 | 228 | 0.0 | 0.0 | 0.00 | 0.00 | 0.00 | 58 | 1002.9 |
| 20260510011652 | 82 | 226 | 0.0 | 0.0 | 0.00 | 0.00 | 0.00 | 57 | 1002.5 |
| 20260510011149 | 82 | 226 | 0.0 | 0.0 | 0.00 | 0.00 | 0.00 | 57 | 1002.5 |
| 20260510010644 | 82 | 220 | 0.0 | 0.0 | 0.00 | 0.00 | 0.00 | 56 | 1002.5 |
| 20260510010142 | 83 | 220 | 0.0 | 0.0 | 0.00 | 0.00 | 0.00 | 55 | 1002.5 |
| 20260510005638 | 83 | 218 | 0.0 | 0.0 | 0.00 | 0.00 | 0.00 | 54 | 1002.5 |
| 20260510005135 | 83 | 244 | 0.0 | 0.0 | 0.00 | 0.00 | 0.00 | 53 | 1002.5 |
| 20260510004633 | 84 | 224 | 0.0 | 0.0 | 0.00 | 0.00 | 0.00 | 52 | 1002.5 |
| 20260510004131 | 84 | 245 | 0.0 | 0.0 | 0.00 | 0.00 | 0.00 | 51 | 1002.5 |
| 20260510003627 | 84 | 228 | 0.0 | 0.0 | 0.00 | 0.00 | 0.00 | 49 | 1002.1 |
| 20260510003124 | 85 | 227 | 0.0 | 0.0 | 0.00 | 0.00 | 0.00 | 49 | 1002.1 |
| 20260510002623 | 85 | 231 | 0.0 | 0.0 | 0.00 | 0.00 | 0.00 | 49 | 1002.1 |
| 20260510002120 | 85 | 163 | 0.0 | 3.0 | 0.00 | 0.00 | 0.00 | 48 | 1002.1 |
| 20260510001617 | 85 | 241 | 0.0 | 0.0 | 0.00 | 0.00 | 0.00 | 48 | 1001.8 |
| 20260510001116 | 86 | 229 | 0.0 | 0.0 | 0.00 | 0.00 | 0.00 | 47 | 1001.8 |
| 20260510000616 | 86 | 228 | 0.0 | 0.0 | 0.00 | 0.00 | 0.00 | 46 | 1001.8 |
| 20260510000113 | 86 | 249 | 0.0 | 0.0 | 0.00 | 0.00 | 0.00 | 46 | 1001.8 |
| 20260509235609 | 86 | 198 | 0.0 | 0.0 | 0.00 | 0.00 | 0.00 | 48 | 1002.1 |
| 20260509235107 | 86 | 233 | 0.0 | 0.0 | 0.00 | 0.00 | 0.00 | 51 | 1001.8 |
| 20260509234603 | 87 | 234 | 0.0 | 0.0 | 0.00 | 0.00 | 0.00 | 53 | 1001.8 |
| 20260509234101 | 87 | 209 | 0.0 | 0.0 | 0.00 | 0.00 | 0.00 | 54 | 1001.8 |
| 20260509233558 | 87 | 228 | 0.0 | 0.0 | 0.00 | 0.00 | 0.00 | 53 | 1001.4 |
| 20260509233055 | 87 | 222 | 0.0 | 0.0 | 0.00 | 0.00 | 0.00 | 52 | 1001.8 |
| 20260509232551 | 88 | 235 | 0.0 | 0.0 | 0.00 | 0.00 | 0.00 | 51 | 1001.8 |
| 20260509232048 | 88 | 223 | 0.0 | 0.0 | 0.00 | 0.00 | 0.00 | 49 | 1001.4 |
| 20260509231544 | 88 | 242 | 0.0 | 0.0 | 0.00 | 0.00 | 0.00 | 51 | 1001.8 |
| 20260509231043 | 88 | 220 | 0.0 | 0.0 | 0.00 | 0.00 | 0.00 | 53 | 1001.4 |
| 20260509230539 | 88 | 231 | 0.0 | 0.0 | 0.00 | 0.00 | 0.00 | 51 | 1001.8 |
| 20260509230036 | 88 | 247 | 0.0 | 0.0 | 0.00 | 0.00 | 0.00 | 52 | 1001.4 |
| 20260509225531 | 88 | 244 | 0.0 | 0.0 | 0.00 | 0.00 | 0.00 | 52 | 1001.4 |
| 20260509225027 | 88 | 230 | 0.0 | 0.0 | 0.00 | 0.00 | 0.00 | 52 | 1001.8 |
| 20260509224523 | 87 | 285 | 0.0 | 0.0 | 0.00 | 0.00 | 0.00 | 52 | 1001.8 |
| 20260509224020 | 87 | 223 | 0.0 | 0.0 | 0.00 | 0.00 | 0.00 | 53 | 1001.8 |
| 20260509223517 | 87 | 231 | 0.0 | 0.0 | 0.00 | 0.00 | 0.00 | 53 | 1001.8 |
| 20260509223015 | 87 | 230 | 0.0 | 0.0 | 0.00 | 0.00 | 0.00 | 54 | 1001.8 |
| 20260509222511 | 87 | 267 | 0.0 | 0.0 | 0.00 | 0.00 | 0.00 | 54 | 1001.4 |
| 20260509222006 | 87 | 230 | 0.0 | 0.0 | 0.00 | 0.00 | 0.00 | 53 | 1001.8 |
| 20260509221502 | 87 | 258 | 0.0 | 0.0 | 0.00 | 0.00 | 0.00 | 53 | 1001.8 |
| 20260509220958 | 86 | 243 | 0.0 | 0.0 | 0.00 | 0.00 | 0.00 | 54 | 1001.8 |
| 20260509220455 | 86 | 235 | 0.0 | 0.0 | 0.00 | 0.00 | 0.00 | 55 | 1001.8 |
| 20260509215950 | 86 | 236 | 0.0 | 0.0 | 0.00 | 0.00 | 0.00 | 54 | 1001.8 |
| 20260509215446 | 86 | 190 | 0.0 | 0.0 | 0.00 | 0.00 | 0.00 | 53 | 1001.8 |
| 20260509214945 | 86 | 185 | 1.0 | 3.0 | 0.00 | 0.00 | 0.00 | 52 | 1001.8 |
| 20260509214441 | 86 | 226 | 0.0 | 3.0 | 0.00 | 0.00 | 0.00 | 53 | 1002.1 |
| 20260509213938 | 86 | 329 | 0.0 | 0.0 | 0.00 | 0.00 | 0.00 | 52 | 1001.8 |
| 20260509213433 | 87 | 226 | 0.0 | 0.0 | 0.00 | 0.00 | 0.00 | 52 | 1002.1 |
| 20260509212931 | 87 | 225 | 0.0 | 3.0 | 0.00 | 0.00 | 0.00 | 51 | 1002.5 |
| 20260509212429 | 88 | 220 | 0.0 | 0.0 | 0.00 | 0.00 | 0.00 | 52 | 1002.1 |
| 20260509211924 | 89 | 171 | 2.0 | 5.0 | 0.00 | 0.00 | 0.00 | 52 | 1002.1 |
| 20260509211420 | 90 | 244 | 0.0 | 0.0 | 0.00 | 0.00 | 0.00 | 51 | 1002.1 |
| 20260509210917 | 91 | 243 | 0.0 | 0.0 | 0.00 | 0.00 | 0.00 | 53 | 1002.5 |
| 20260509210414 | 91 | 204 | 0.0 | 0.0 | 0.00 | 0.00 | 0.00 | 49 | 1002.1 |
| 20260509205910 | 92 | 227 | 0.0 | 0.0 | 0.00 | 0.00 | 0.00 | 48 | 1002.5 |
| 20260509205409 | 92 | 220 | 0.0 | 0.0 | 0.00 | 0.00 | 0.00 | 47 | 1002.1 |
| 20260509204906 | 92 | 32 | 0.0 | 0.0 | 0.00 | 0.00 | 0.00 | 49 | 1002.5 |
| 20260509204402 | 92 | 229 | 0.0 | 0.0 | 0.00 | 0.00 | 0.00 | 47 | 1002.5 |
| 20260509203859 | 93 | 224 | 0.0 | 0.0 | 0.00 | 0.00 | 0.00 | 46 | 1002.5 |
| 20260509203355 | 93 | 218 | 0.0 | 0.0 | 0.00 | 0.00 | 0.00 | 46 | 1002.9 |
| 20260509202853 | 93 | 230 | 0.0 | 0.0 | 0.00 | 0.00 | 0.00 | 47 | 1002.9 |
| 20260509202348 | 93 | 131 | 0.0 | 0.0 | 0.00 | 0.00 | 0.00 | 46 | 1002.9 |
| 20260509201843 | 93 | 230 | 0.0 | 0.0 | 0.00 | 0.00 | 0.00 | 49 | 1002.9 |
| 20260509201339 | 93 | 212 | 0.0 | 0.0 | 0.00 | 0.00 | 0.00 | 49 | 1002.9 |
| 20260509200836 | 92 | 252 | 0.0 | 0.0 | 0.00 | 0.00 | 0.00 | 47 | 1002.9 |
| 20260509200331 | 92 | 193 | 0.0 | 0.0 | 0.00 | 0.00 | 0.00 | 48 | 1002.9 |
| 20260509195828 | 92 | 243 | 0.0 | 0.0 | 0.00 | 0.00 | 0.00 | 52 | 1002.9 |
| 20260509195328 | 92 | 222 | 0.0 | 0.0 | 0.00 | 0.00 | 0.00 | 48 | 1002.9 |
| 20260509194828 | 91 | 292 | 0.0 | 0.0 | 0.00 | 0.00 | 0.00 | 49 | 1002.9 |
| 20260509194324 | 91 | 224 | 0.0 | 0.0 | 0.00 | 0.00 | 0.00 | 47 | 1002.9 |
| 20260509193821 | 91 | 221 | 0.0 | 0.0 | 0.00 | 0.00 | 0.00 | 47 | 1002.9 |
| 20260509193321 | 91 | 228 | 1.0 | 3.0 | 0.00 | 0.00 | 0.00 | 49 | 1002.9 |
| 20260509192817 | 91 | 230 | 0.0 | 0.0 | 0.00 | 0.00 | 0.00 | 51 | 1003.2 |
| 20260509192313 | 90 | 181 | 0.0 | 3.0 | 0.00 | 0.00 | 0.00 | 51 | 1003.2 |
| 20260509191808 | 90 | 152 | 1.0 | 3.0 | 0.00 | 0.00 | 0.00 | 51 | 1003.2 |
| 20260509191305 | 90 | 225 | 0.0 | 0.0 | 0.00 | 0.00 | 0.00 | 52 | 1003.2 |
| 20260509190800 | 90 | 229 | 0.0 | 0.0 | 0.00 | 0.00 | 0.00 | 53 | 1003.2 |
| 20260509190258 | 89 | 221 | 0.0 | 0.0 | 0.00 | 0.00 | 0.00 | 54 | 1003.2 |
| 20260509185755 | 89 | 191 | 0.0 | 0.0 | 0.00 | 0.00 | 0.00 | 53 | 1003.5 |
| 20260509185251 | 89 | 231 | 0.0 | 0.0 | 0.00 | 0.00 | 0.00 | 56 | 1003.9 |
| 20260509184749 | 89 | 234 | 0.0 | 0.0 | 0.00 | 0.00 | 0.00 | 54 | 1003.5 |
| 20260509184246 | 88 | 212 | 0.0 | 0.0 | 0.00 | 0.00 | 0.00 | 54 | 1003.9 |
| 20260509183742 | 88 | 226 | 0.0 | 0.0 | 0.00 | 0.00 | 0.00 | 57 | 1003.9 |
| 20260509183237 | 88 | 227 | 0.0 | 0.0 | 0.00 | 0.00 | 0.00 | 57 | 1003.9 |
| 20260509182733 | 89 | 264 | 0.0 | 0.0 | 0.00 | 0.00 | 0.00 | 56 | 1003.9 |
| 20260509182231 | 89 | 220 | 0.0 | 0.0 | 0.00 | 0.00 | 0.00 | 58 | 1004.2 |
| 20260509181728 | 89 | 223 | 0.0 | 0.0 | 0.00 | 0.00 | 0.00 | 56 | 1004.2 |
| 20260509181226 | 89 | 163 | 0.0 | 0.0 | 0.00 | 0.00 | 0.00 | 55 | 1004.2 |
| 20260509180723 | 89 | 246 | 0.0 | 0.0 | 0.00 | 0.00 | 0.00 | 57 | 1004.2 |
| 20260509180219 | 88 | 222 | 0.0 | 0.0 | 0.00 | 0.00 | 0.00 | 57 | 1004.2 |
| 20260509175715 | 88 | 208 | 0.0 | 0.0 | 0.00 | 0.00 | 0.00 | 57 | 1004.6 |
| 20260509175212 | 87 | 215 | 0.0 | 0.0 | 0.00 | 0.00 | 0.00 | 58 | 1004.6 |
| 20260509174707 | 87 | 230 | 0.0 | 0.0 | 0.00 | 0.00 | 0.00 | 62 | 1004.6 |
| 20260509174203 | 87 | 224 | 0.0 | 0.0 | 0.00 | 0.00 | 0.00 | 59 | 1004.6 |
| 20260509173659 | 86 | 237 | 0.0 | 0.0 | 0.00 | 0.00 | 0.00 | 60 | 1004.6 |
| 20260509173155 | 86 | 234 | 0.0 | 0.0 | 0.00 | 0.00 | 0.00 | 60 | 1004.9 |
| 20260509172651 | 86 | 176 | 0.0 | 0.0 | 0.00 | 0.00 | 0.00 | 60 | 1005.2 |
| 20260509172148 | 86 | 188 | 0.0 | 3.0 | 0.00 | 0.00 | 0.00 | 63 | 1004.9 |
| 20260509171643 | 86 | 338 | 0.0 | 0.0 | 0.00 | 0.00 | 0.00 | 61 | 1004.6 |
| 20260509171140 | 86 | 201 | 0.0 | 0.0 | 0.00 | 0.00 | 0.00 | 61 | 1004.6 |
| 20260509170637 | 85 | 170 | 0.0 | 0.0 | 0.00 | 0.00 | 0.00 | 61 | 1004.9 |
| 20260509170133 | 85 | 239 | 0.0 | 0.0 | 0.00 | 0.00 | 0.00 | 64 | 1004.9 |
| 20260509165631 | 85 | 218 | 0.0 | 0.0 | 0.00 | 0.00 | 0.00 | 62 | 1004.9 |
| 20260509165127 | 84 | 215 | 0.0 | 0.0 | 0.00 | 0.00 | 0.00 | 64 | 1004.9 |
| 20260509164623 | 84 | 212 | 0.0 | 0.0 | 0.00 | 0.00 | 0.00 | 65 | 1004.6 |
| 20260509164119 | 83 | 238 | 0.0 | 0.0 | 0.00 | 0.00 | 0.00 | 66 | 1004.6 |
| 20260509163617 | 83 | 249 | 0.0 | 0.0 | 0.00 | 0.00 | 0.00 | 65 | 1004.9 |
| 20260509163112 | 83 | 222 | 0.0 | 0.0 | 0.00 | 0.00 | 0.00 | 66 | 1004.9 |
| 20260509162610 | 82 | 229 | 0.0 | 0.0 | 0.00 | 0.00 | 0.00 | 66 | 1004.6 |
| 20260509162105 | 81 | 209 | 0.0 | 0.0 | 0.00 | 0.00 | 0.00 | 67 | 1004.6 |
| 20260509161602 | 80 | 262 | 0.0 | 0.0 | 0.00 | 0.00 | 0.00 | 67 | 1004.9 |
| 20260509161103 | 80 | 217 | 1.0 | 3.0 | 0.00 | 0.00 | 0.00 | 68 | 1004.9 |
| 20260509160559 | 79 | 250 | 0.0 | 0.0 | 0.00 | 0.00 | 0.00 | 69 | 1004.6 |
| 20260509160054 | 78 | 237 | 0.0 | 3.0 | 0.00 | 0.00 | 0.00 | 70 | 1004.6 |
| 20260509155550 | 77 | 228 | 0.0 | 0.0 | 0.00 | 0.00 | 0.00 | 75 | 1004.6 |
| 20260509155047 | 76 | 215 | 0.0 | 0.0 | 0.00 | 0.00 | 0.00 | 76 | 1004.9 |
| 20260509154543 | 75 | 215 | 0.0 | 0.0 | 0.00 | 0.00 | 0.00 | 78 | 1004.9 |
| 20260509154040 | 75 | 284 | 1.0 | 3.0 | 0.00 | 0.00 | 0.00 | 79 | 1004.9 |
| 20260509153537 | 75 | 185 | 0.0 | 0.0 | 0.00 | 0.00 | 0.00 | 80 | 1005.2 |
| 20260509153034 | 74 | 212 | 0.0 | 0.0 | 0.00 | 0.00 | 0.00 | 80 | 1005.2 |
| 20260509152530 | 74 | 227 | 0.0 | 3.0 | 0.00 | 0.00 | 0.00 | 80 | 1004.9 |
| 20260509152027 | 74 | 214 | 1.0 | 3.0 | 0.00 | 0.00 | 0.00 | 81 | 1004.9 |
| 20260509151523 | 74 | 184 | 1.0 | 3.0 | 0.00 | 0.00 | 0.00 | 81 | 1004.9 |
| 20260509151021 | 74 | 253 | 0.0 | 0.0 | 0.00 | 0.00 | 0.00 | 81 | 1004.9 |
| 20260509150518 | 74 | 197 | 0.0 | 0.0 | 0.00 | 0.00 | 0.00 | 82 | 1004.9 |
| 20260509150017 | 74 | 207 | 0.0 | 0.0 | 0.00 | 0.00 | 0.00 | 82 | 1004.9 |
| 20260509145512 | 74 | 168 | 1.0 | 3.0 | 0.00 | 0.00 | 0.00 | 82 | 1004.6 |
| 20260509145007 | 74 | 229 | 0.0 | 0.0 | 0.00 | 0.00 | 0.00 | 82 | 1004.6 |
| 20260509144505 | 74 | 166 | 0.0 | 3.0 | 0.00 | 0.00 | 0.00 | 82 | 1004.6 |
| 20260509144002 | 74 | 220 | 0.0 | 0.0 | 0.00 | 0.00 | 0.00 | 82 | 1004.2 |
| 20260509143459 | 74 | 223 | 0.0 | 3.0 | 0.00 | 0.00 | 0.00 | 82 | 1004.6 |
| 20260509142955 | 74 | 246 | 0.0 | 0.0 | 0.00 | 0.00 | 0.00 | 82 | 1004.6 |
| 20260509142452 | 74 | 189 | 0.0 | 0.0 | 0.00 | 0.00 | 0.00 | 82 | 1004.2 |
| 20260509141947 | 73 | 219 | 0.0 | 0.0 | 0.00 | 0.00 | 0.00 | 82 | 1003.9 |
| 20260509141444 | 73 | 159 | 0.0 | 0.0 | 0.00 | 0.00 | 0.00 | 83 | 1003.9 |
| 20260509140941 | 73 | 213 | 0.0 | 0.0 | 0.00 | 0.00 | 0.00 | 84 | 1003.9 |
| 20260509140437 | 72 | 222 | 0.0 | 0.0 | 0.00 | 0.00 | 0.00 | 85 | 1003.9 |
| 20260509135936 | 72 | 167 | 0.0 | 0.0 | 0.00 | 0.00 | 0.00 | 85 | 1003.9 |
| 20260509135433 | 72 | 215 | 0.0 | 0.0 | 0.00 | 0.00 | 0.00 | 85 | 1003.9 |
| 20260509134930 | 72 | 166 | 0.0 | 0.0 | 0.00 | 0.00 | 0.00 | 85 | 1003.9 |
| 20260509134427 | 72 | 215 | 0.0 | 0.0 | 0.00 | 0.00 | 0.00 | 85 | 1003.9 |
| 20260509133925 | 72 | 205 | 0.0 | 0.0 | 0.00 | 0.00 | 0.00 | 85 | 1004.2 |
| 20260509133421 | 72 | 211 | 0.0 | 0.0 | 0.00 | 0.00 | 0.00 | 85 | 1004.6 |
| 20260509132920 | 72 | 217 | 0.0 | 0.0 | 0.00 | 0.00 | 0.00 | 85 | 1004.6 |
| 20260509132417 | 72 | 217 | 0.0 | 0.0 | 0.00 | 0.00 | 0.00 | 85 | 1004.6 |
| 20260509131914 | 72 | 227 | 0.0 | 0.0 | 0.00 | 0.00 | 0.00 | 85 | 1004.6 |
| 20260509131411 | 71 | 234 | 0.0 | 0.0 | 0.00 | 0.00 | 0.00 | 85 | 1004.6 |
| 20260509130908 | 71 | 216 | 0.0 | 0.0 | 0.00 | 0.00 | 0.00 | 85 | 1004.6 |
| 20260509130403 | 71 | 223 | 0.0 | 0.0 | 0.00 | 0.00 | 0.00 | 85 | 1004.6 |
| 20260509125900 | 71 | 215 | 0.0 | 0.0 | 0.00 | 0.00 | 0.00 | 86 | 1004.2 |
| 20260509125357 | 71 | 221 | 0.0 | 0.0 | 0.00 | 0.00 | 0.00 | 85 | 1004.6 |
| 20260509124852 | 71 | 238 | 0.0 | 0.0 | 0.00 | 0.00 | 0.00 | 85 | 1004.2 |
| 20260509124350 | 71 | 225 | 0.0 | 0.0 | 0.00 | 0.00 | 0.00 | 86 | 1004.2 |
| 20260509123848 | 71 | 225 | 0.0 | 0.0 | 0.00 | 0.00 | 0.00 | 85 | 1003.9 |
| 20260509123345 | 71 | 209 | 0.0 | 0.0 | 0.00 | 0.00 | 0.00 | 85 | 1004.2 |
| 20260509122840 | 71 | 218 | 0.0 | 0.0 | 0.00 | 0.00 | 0.00 | 86 | 1003.9 |
| 20260509122337 | 71 | 195 | 0.0 | 0.0 | 0.00 | 0.00 | 0.00 | 85 | 1003.9 |
| 20260509121834 | 71 | 220 | 0.0 | 0.0 | 0.00 | 0.00 | 0.00 | 86 | 1004.2 |
| 20260509121332 | 71 | 203 | 0.0 | 0.0 | 0.00 | 0.00 | 0.00 | 85 | 1004.2 |
| 20260509120830 | 71 | 222 | 0.0 | 0.0 | 0.00 | 0.00 | 0.00 | 85 | 1004.2 |
| 20260509120327 | 71 | 217 | 0.0 | 0.0 | 0.00 | 0.00 | 0.00 | 85 | 1003.9 |
| 20260509115825 | 71 | 226 | 0.0 | 0.0 | 0.00 | 0.00 | 0.00 | 85 | 1004.2 |
| 20260509115322 | 71 | 225 | 0.0 | 0.0 | 0.00 | 0.00 | 0.00 | 85 | 1004.2 |
| 20260509114820 | 71 | 235 | 0.0 | 0.0 | 0.00 | 0.00 | 0.00 | 85 | 1004.2 |
| 20260509114318 | 71 | 222 | 0.0 | 0.0 | 0.00 | 0.00 | 0.00 | 85 | 1004.2 |
| 20260509113818 | 71 | 217 | 0.0 | 0.0 | 0.00 | 0.00 | 0.00 | 85 | 1004.6 |
| 20260509113313 | 71 | 222 | 0.0 | 0.0 | 0.00 | 0.00 | 0.00 | 85 | 1004.6 |
| 20260509112810 | 71 | 210 | 0.0 | 0.0 | 0.00 | 0.00 | 0.00 | 85 | 1004.9 |
| 20260509112308 | 71 | 188 | 0.0 | 0.0 | 0.00 | 0.00 | 0.00 | 85 | 1004.9 |
| 20260509111805 | 71 | 240 | 0.0 | 0.0 | 0.00 | 0.00 | 0.00 | 85 | 1004.9 |
| 20260509111301 | 71 | 269 | 0.0 | 0.0 | 0.00 | 0.00 | 0.00 | 85 | 1004.9 |
| 20260509110759 | 71 | 216 | 0.0 | 0.0 | 0.00 | 0.00 | 0.00 | 85 | 1004.9 |
| 20260509110255 | 71 | 223 | 0.0 | 0.0 | 0.00 | 0.00 | 0.00 | 85 | 1004.9 |
| 20260509105754 | 71 | 264 | 0.0 | 0.0 | 0.00 | 0.00 | 0.00 | 85 | 1005.2 |
| 20260509105251 | 71 | 233 | 0.0 | 0.0 | 0.00 | 0.00 | 0.00 | 85 | 1004.9 |
| 20260509104747 | 71 | 229 | 0.0 | 0.0 | 0.00 | 0.00 | 0.00 | 85 | 1004.9 |
| 20260509104244 | 71 | 234 | 0.0 | 0.0 | 0.00 | 0.00 | 0.00 | 85 | 1005.2 |
| 20260509103743 | 71 | 258 | 0.0 | 0.0 | 0.00 | 0.00 | 0.00 | 84 | 1005.2 |
| 20260509103239 | 71 | 252 | 0.0 | 0.0 | 0.00 | 0.00 | 0.00 | 84 | 1004.9 |
| 20260509102738 | 71 | 231 | 0.0 | 0.0 | 0.00 | 0.00 | 0.00 | 84 | 1004.6 |
| 20260509102234 | 71 | 239 | 0.0 | 0.0 | 0.00 | 0.00 | 0.00 | 84 | 1004.9 |
| 20260509101731 | 71 | 230 | 0.0 | 0.0 | 0.00 | 0.00 | 0.00 | 84 | 1004.6 |
| 20260509101227 | 71 | 221 | 0.0 | 0.0 | 0.00 | 0.00 | 0.00 | 84 | 1004.6 |
| 20260509100724 | 71 | 224 | 0.0 | 0.0 | 0.00 | 0.00 | 0.00 | 84 | 1004.2 |
| 20260509100222 | 71 | 218 | 0.0 | 0.0 | 0.00 | 0.00 | 0.00 | 83 | 1003.9 |
| 20260509095718 | 71 | 220 | 0.0 | 0.0 | 0.00 | 0.00 | 0.00 | 83 | 1003.9 |
| 20260509095216 | 71 | 217 | 0.0 | 0.0 | 0.00 | 0.00 | 0.00 | 83 | 1003.9 |
| 20260509094713 | 71 | 220 | 0.0 | 0.0 | 0.00 | 0.00 | 0.00 | 83 | 1003.5 |
| 20260509094209 | 71 | 220 | 0.0 | 0.0 | 0.00 | 0.00 | 0.00 | 83 | 1003.5 |
| 20260509093708 | 71 | 220 | 0.0 | 0.0 | 0.00 | 0.00 | 0.00 | 83 | 1003.5 |
| 20260509093204 | 71 | 218 | 0.0 | 0.0 | 0.00 | 0.00 | 0.00 | 83 | 1003.9 |
| 20260509092702 | 71 | 215 | 0.0 | 0.0 | 0.00 | 0.00 | 0.00 | 82 | 1003.5 |
| 20260509092200 | 71 | 220 | 0.0 | 0.0 | 0.00 | 0.00 | 0.00 | 82 | 1003.5 |
| 20260509091658 | 71 | 220 | 0.0 | 0.0 | 0.00 | 0.00 | 0.00 | 82 | 1003.5 |
| 20260509091154 | 71 | 220 | 0.0 | 0.0 | 0.00 | 0.00 | 0.00 | 82 | 1003.5 |
| 20260509090652 | 72 | 214 | 0.0 | 0.0 | 0.00 | 0.00 | 0.00 | 82 | 1003.5 |
| 20260509090149 | 72 | 222 | 0.0 | 0.0 | 0.00 | 0.00 | 0.00 | 81 | 1003.5 |
| 20260509085647 | 72 | 221 | 0.0 | 0.0 | 0.00 | 0.00 | 0.00 | 81 | 1003.5 |
| 20260509085142 | 72 | 221 | 0.0 | 0.0 | 0.00 | 0.00 | 0.00 | 81 | 1003.5 |
| 20260509084640 | 72 | 220 | 0.0 | 0.0 | 0.00 | 0.00 | 0.00 | 81 | 1003.5 |
| 20260509084137 | 72 | 220 | 0.0 | 0.0 | 0.00 | 0.00 | 0.00 | 81 | 1003.9 |
| 20260509083634 | 72 | 220 | 0.0 | 0.0 | 0.00 | 0.00 | 0.00 | 80 | 1003.9 |
| 20260509083131 | 72 | 224 | 0.0 | 0.0 | 0.00 | 0.00 | 0.00 | 80 | 1004.2 |
| 20260509082628 | 72 | 223 | 0.0 | 0.0 | 0.00 | 0.00 | 0.00 | 80 | 1003.9 |
| 20260509082125 | 72 | 220 | 0.0 | 0.0 | 0.00 | 0.00 | 0.00 | 79 | 1004.2 |
| 20260509081622 | 72 | 221 | 0.0 | 0.0 | 0.00 | 0.00 | 0.00 | 79 | 1004.2 |
| 20260509081119 | 72 | 223 | 0.0 | 0.0 | 0.00 | 0.00 | 0.00 | 78 | 1003.9 |
| 20260509080617 | 72 | 223 | 0.0 | 0.0 | 0.00 | 0.00 | 0.00 | 78 | 1003.9 |
| 20260509080114 | 72 | 221 | 0.0 | 0.0 | 0.00 | 0.00 | 0.00 | 77 | 1003.9 |
| 20260509075612 | 72 | 224 | 0.0 | 0.0 | 0.00 | 0.00 | 0.00 | 77 | 1003.9 |
| 20260509075110 | 72 | 221 | 0.0 | 0.0 | 0.00 | 0.00 | 0.00 | 77 | 1003.5 |
| 20260509074606 | 72 | 223 | 0.0 | 0.0 | 0.00 | 0.00 | 0.00 | 77 | 1003.5 |
| 20260509074103 | 72 | 229 | 0.0 | 0.0 | 0.00 | 0.00 | 0.00 | 77 | 1003.5 |
| 20260509073600 | 72 | 221 | 0.0 | 0.0 | 0.00 | 0.00 | 0.00 | 77 | 1003.5 |
| 20260509073057 | 72 | 220 | 0.0 | 0.0 | 0.00 | 0.00 | 0.00 | 77 | 1003.9 |
| 20260509072553 | 72 | 220 | 0.0 | 0.0 | 0.00 | 0.00 | 0.00 | 77 | 1003.9 |
| 20260509072050 | 72 | 219 | 0.0 | 0.0 | 0.00 | 0.00 | 0.00 | 77 | 1003.5 |
| 20260509071547 | 72 | 221 | 0.0 | 0.0 | 0.00 | 0.00 | 0.00 | 77 | 1003.9 |
| 20260509071044 | 72 | 220 | 0.0 | 0.0 | 0.00 | 0.00 | 0.00 | 77 | 1003.9 |
| 20260509070541 | 72 | 220 | 0.0 | 0.0 | 0.00 | 0.00 | 0.00 | 77 | 1003.5 |
| 20260509070037 | 72 | 216 | 0.0 | 0.0 | 0.00 | 0.00 | 0.00 | 77 | 1003.9 |
| 20260509065532 | 72 | 214 | 0.0 | 0.0 | 0.00 | 0.00 | 0.00 | 77 | 1003.9 |
| 20260509065029 | 72 | 221 | 0.0 | 0.0 | 0.00 | 0.00 | 0.00 | 77 | 1003.9 |
| 20260509064528 | 72 | 208 | 0.0 | 0.0 | 0.00 | 0.00 | 0.00 | 77 | 1003.9 |
| 20260509064026 | 72 | 180 | 0.0 | 0.0 | 0.00 | 0.00 | 0.00 | 77 | 1004.2 |
| 20260509063526 | 72 | 207 | 0.0 | 0.0 | 0.00 | 0.00 | 0.00 | 77 | 1003.5 |
| 20260509063023 | 72 | 220 | 0.0 | 0.0 | 0.00 | 0.00 | 0.00 | 77 | 1003.5 |
| 20260509062520 | 72 | 212 | 0.0 | 0.0 | 0.00 | 0.00 | 0.00 | 77 | 1003.5 |
| 20260509062018 | 72 | 210 | 0.0 | 0.0 | 0.00 | 0.00 | 0.00 | 77 | 1003.5 |
| 20260509061515 | 72 | 211 | 0.0 | 0.0 | 0.00 | 0.00 | 0.00 | 77 | 1003.5 |
| 20260509061012 | 71 | 259 | 0.0 | 0.0 | 0.00 | 0.00 | 0.00 | 77 | 1003.5 |
| 20260509060509 | 71 | 213 | 0.0 | 0.0 | 0.00 | 0.00 | 0.00 | 77 | 1003.5 |
| 20260509060005 | 71 | 122 | 0.0 | 0.0 | 0.00 | 0.00 | 0.00 | 77 | 1003.5 |
| 20260509055500 | 71 | 217 | 0.0 | 0.0 | 0.00 | 0.00 | 0.00 | 77 | 1003.5 |
| 20260509054957 | 71 | 215 | 0.0 | 0.0 | 0.00 | 0.00 | 0.00 | 77 | 1003.5 |
| 20260509054454 | 71 | 224 | 0.0 | 0.0 | 0.00 | 0.00 | 0.00 | 77 | 1003.2 |
| 20260509053952 | 70 | 242 | 0.0 | 0.0 | 0.00 | 0.00 | 0.00 | 77 | 1003.5 |
| 20260509053449 | 70 | 260 | 0.0 | 0.0 | 0.00 | 0.00 | 0.00 | 77 | 1003.5 |
| 20260509052947 | 70 | 219 | 0.0 | 0.0 | 0.00 | 0.00 | 0.00 | 77 | 1003.5 |
| 20260509052444 | 70 | 214 | 0.0 | 0.0 | 0.00 | 0.00 | 0.00 | 76 | 1003.5 |
| 20260509051942 | 70 | 220 | 0.0 | 0.0 | 0.00 | 0.00 | 0.00 | 75 | 1003.5 |
| 20260509051439 | 70 | 216 | 0.0 | 0.0 | 0.00 | 0.00 | 0.00 | 75 | 1003.5 |
| 20260509050936 | 70 | 216 | 0.0 | 0.0 | 0.00 | 0.00 | 0.00 | 75 | 1003.5 |
| 20260509050433 | 70 | 213 | 0.0 | 0.0 | 0.00 | 0.00 | 0.00 | 75 | 1003.2 |
| 20260509045930 | 70 | 203 | 0.0 | 0.0 | 0.00 | 0.00 | 0.00 | 75 | 1003.2 |
| 20260509045427 | 71 | 212 | 0.0 | 0.0 | 0.00 | 0.00 | 0.00 | 75 | 1002.9 |
| 20260509044924 | 71 | 213 | 0.0 | 0.0 | 0.00 | 0.00 | 0.00 | 75 | 1002.9 |
| 20260509044422 | 71 | 213 | 0.0 | 0.0 | 0.00 | 0.00 | 0.00 | 75 | 1002.9 |
| 20260509043919 | 71 | 214 | 0.0 | 0.0 | 0.00 | 0.00 | 0.00 | 75 | 1002.9 |
| 20260509043414 | 71 | 212 | 0.0 | 0.0 | 0.00 | 0.00 | 0.00 | 75 | 1002.9 |
| 20260509042910 | 71 | 208 | 0.0 | 0.0 | 0.00 | 0.00 | 0.00 | 75 | 1003.2 |
| 20260509042407 | 71 | 208 | 0.0 | 0.0 | 0.00 | 0.00 | 0.00 | 75 | 1003.2 |
| 20260509041903 | 71 | 210 | 0.0 | 0.0 | 0.00 | 0.00 | 0.00 | 75 | 1003.2 |
| 20260509041401 | 71 | 201 | 0.0 | 0.0 | 0.00 | 0.00 | 0.00 | 75 | 1003.2 |
| 20260509040858 | 71 | 213 | 0.0 | 0.0 | 0.00 | 0.00 | 0.00 | 75 | 1003.2 |
| 20260509040356 | 71 | 215 | 0.0 | 0.0 | 0.00 | 0.00 | 0.00 | 75 | 1003.5 |
| 20260509035853 | 71 | 214 | 0.0 | 0.0 | 0.00 | 0.00 | 0.00 | 75 | 1003.5 |
| 20260509035350 | 71 | 173 | 0.0 | 0.0 | 0.00 | 0.00 | 0.00 | 75 | 1003.5 |
| 20260509034846 | 71 | 212 | 0.0 | 0.0 | 0.00 | 0.00 | 0.00 | 75 | 1003.5 |
| 20260509034344 | 71 | 207 | 0.0 | 0.0 | 0.00 | 0.00 | 0.00 | 75 | 1003.5 |
| 20260509033840 | 72 | 207 | 0.0 | 0.0 | 0.00 | 0.00 | 0.00 | 75 | 1003.2 |